| time (UTC) | temp C | wind direction | speed KPH | gust KPH | rain 1hr cm | rain 24hr cm | rain mn cm | humidity % | barometer mb |
| 20260505114557 | 15 | 303 | 0.0 | 8.0 | 0.00 | 0.00 | 0.00 | 52 | 1013.7 |
| 20260505114054 | 15 | 303 | 1.6 | 6.4 | 0.00 | 0.00 | 0.00 | 52 | 1013.7 |
| 20260505113559 | 15 | 303 | 1.6 | 6.4 | 0.00 | 0.00 | 0.00 | 51 | 1013.7 |
| 20260505113103 | 15 | 294 | 0.0 | 6.4 | 0.00 | 0.00 | 0.00 | 50 | 1013.6 |
| 20260505112553 | 15 | 294 | 0.0 | 8.0 | 0.00 | 0.00 | 0.00 | 51 | 1013.6 |
| 20260505112053 | 15 | 294 | 1.6 | 8.0 | 0.00 | 0.00 | 0.00 | 50 | 1013.5 |
| 20260505111555 | 15 | 286 | 1.6 | 8.0 | 0.00 | 0.00 | 0.00 | 49 | 1013.4 |
| 20260505111054 | 15 | 276 | 1.6 | 6.4 | 0.00 | 0.00 | 0.00 | 49 | 1013.4 |
| 20260505110553 | 15 | 263 | 1.6 | 8.0 | 0.00 | 0.00 | 0.00 | 49 | 1013.5 |
| 20260505102051 | 14 | 269 | 0.0 | 1.6 | 0.00 | 0.00 | 0.00 | 54 | 1013.8 |
| 20260505101556 | 14 | 269 | 0.0 | 0.0 | 0.00 | 0.00 | 0.00 | 53 | 1013.6 |
| 20260505101051 | 14 | 269 | 0.0 | 1.6 | 0.00 | 0.00 | 0.00 | 53 | 1013.5 |
| 20260505100550 | 14 | 269 | 0.0 | 1.6 | 0.00 | 0.00 | 0.00 | 53 | 1013.5 |
| 20260505100049 | 14 | 269 | 0.0 | 1.6 | 0.00 | 0.00 | 0.00 | 52 | 1013.6 |
| 20260505095548 | 15 | 269 | 0.0 | 3.2 | 0.00 | 0.00 | 0.00 | 51 | 1013.4 |
| 20260505095052 | 14 | 269 | 0.0 | 1.6 | 0.00 | 0.00 | 0.00 | 52 | 1013.4 |
| 20260505094558 | 14 | 269 | 0.0 | 0.0 | 0.00 | 0.00 | 0.00 | 52 | 1013.5 |
| 20260505094047 | 15 | 269 | 0.0 | 0.0 | 0.00 | 0.00 | 0.00 | 50 | 1013.4 |
| 20260505093550 | 15 | 269 | 0.0 | 0.0 | 0.00 | 0.00 | 0.00 | 50 | 1013.4 |
| 20260505093053 | 15 | 269 | 0.0 | 1.6 | 0.00 | 0.00 | 0.00 | 49 | 1013.3 |
| 20260505092544 | 15 | 269 | 0.0 | 1.6 | 0.00 | 0.00 | 0.00 | 47 | 1013.3 |
| 20260505092049 | 16 | 269 | 0.0 | 6.4 | 0.00 | 0.00 | 0.00 | 45 | 1013.3 |
| 20260505091544 | 15 | 269 | 1.6 | 6.4 | 0.00 | 0.00 | 0.00 | 45 | 1013.3 |
| 20260505091044 | 15 | 265 | 1.6 | 8.0 | 0.00 | 0.00 | 0.00 | 45 | 1013.2 |
| 20260505090543 | 15 | 244 | 3.2 | 8.0 | 0.00 | 0.00 | 0.00 | 45 | 1013.5 |
| 20260505090044 | 15 | 244 | 1.6 | 9.7 | 0.00 | 0.00 | 0.00 | 46 | 1013.6 |
| 20260505085545 | 16 | 248 | 4.8 | 9.7 | 0.00 | 0.00 | 0.00 | 45 | 1013.7 |
| 20260505085047 | 16 | 276 | 4.8 | 9.7 | 0.00 | 0.00 | 0.00 | 46 | 1013.7 |
| 20260505084543 | 16 | 255 | 4.8 | 11.3 | 0.00 | 0.00 | 0.00 | 45 | 1013.7 |
| 20260505084042 | 16 | 261 | 6.4 | 11.3 | 0.00 | 0.00 | 0.00 | 45 | 1013.6 |
| 20260505083544 | 16 | 258 | 6.4 | 11.3 | 0.00 | 0.00 | 0.00 | 44 | 1013.8 |
| 20260505083055 | 16 | 244 | 4.8 | 8.0 | 0.00 | 0.00 | 0.00 | 45 | 1013.8 |
| 20260505082541 | 15 | 199 | 1.6 | 6.4 | 0.00 | 0.00 | 0.00 | 49 | 1013.9 |
| 20260505082040 | 15 | 199 | 1.6 | 3.2 | 0.00 | 0.00 | 0.00 | 49 | 1013.9 |
| 20260505081540 | 15 | 199 | 1.6 | 3.2 | 0.00 | 0.00 | 0.00 | 48 | 1013.9 |
| 20260505081039 | 15 | 199 | 0.0 | 3.2 | 0.00 | 0.00 | 0.00 | 49 | 1013.9 |
| 20260505080537 | 16 | 199 | 0.0 | 1.6 | 0.00 | 0.00 | 0.00 | 46 | 1013.9 |
| 20260505080041 | 16 | 199 | 0.0 | 0.0 | 0.00 | 0.00 | 0.00 | 46 | 1013.9 |
| 20260505075534 | 16 | 199 | 0.0 | 1.6 | 0.00 | 0.00 | 0.00 | 43 | 1013.8 |
| 20260505075035 | 17 | 199 | 0.0 | 6.4 | 0.00 | 0.00 | 0.00 | 41 | 1013.9 |
| 20260505074534 | 17 | 199 | 1.6 | 4.8 | 0.00 | 0.00 | 0.00 | 41 | 1013.9 |
| 20260505074033 | 17 | 195 | 0.0 | 6.4 | 0.00 | 0.00 | 0.00 | 40 | 1013.7 |
| 20260505072511 | 17 | 268 | 0.0 | 6.4 | 0.00 | 0.00 | 0.00 | 37 | 1014.0 |
| 20260505072011 | 17 | 286 | 0.0 | 8.0 | 0.00 | 0.00 | 0.00 | 36 | 1014.0 |
| 20260505071510 | 17 | 269 | 3.2 | 9.7 | 0.00 | 0.00 | 0.00 | 35 | 1014.0 |
| 20260505071010 | 17 | 286 | 3.2 | 9.7 | 0.00 | 0.00 | 0.00 | 35 | 1013.8 |
| 20260505070509 | 17 | 260 | 3.2 | 9.7 | 0.00 | 0.00 | 0.00 | 34 | 1013.8 |
| 20260505070017 | 17 | 255 | 6.4 | 9.7 | 0.00 | 0.00 | 0.00 | 34 | 1013.6 |
| 20260505065508 | 17 | 265 | 4.8 | 8.0 | 0.00 | 0.00 | 0.00 | 33 | 1013.3 |
| 20260505065007 | 17 | 252 | 3.2 | 9.7 | 0.00 | 0.00 | 0.00 | 33 | 1013.3 |
| 20260505064512 | 17 | 244 | 4.8 | 9.7 | 0.00 | 0.00 | 0.00 | 33 | 1013.5 |
| 20260505064005 | 17 | 252 | 3.2 | 4.8 | 0.00 | 0.00 | 0.00 | 33 | 1013.5 |
| 20260505063505 | 17 | 300 | 1.6 | 3.2 | 0.00 | 0.00 | 0.00 | 35 | 1013.6 |
| 20260505063005 | 17 | 300 | 0.0 | 3.2 | 0.00 | 0.00 | 0.00 | 35 | 1013.7 |
| 20260505062504 | 17 | 300 | 0.0 | 3.2 | 0.00 | 0.00 | 0.00 | 35 | 1013.6 |
| 20260505062002 | 17 | 300 | 0.0 | 3.2 | 0.00 | 0.00 | 0.00 | 35 | 1013.6 |
| 20260505061504 | 17 | 300 | 0.0 | 0.0 | 0.00 | 0.00 | 0.00 | 37 | 1013.5 |
| 20260505061002 | 17 | 300 | 0.0 | 0.0 | 0.00 | 0.00 | 0.00 | 37 | 1013.7 |
| 20260505060604 | 17 | 300 | 0.0 | 0.0 | 0.00 | 0.00 | 0.00 | 35 | 1013.7 |
| 20260505055600 | 17 | 300 | 0.0 | 0.0 | 0.00 | 0.00 | 0.00 | 37 | 1013.9 |
| 20260505055059 | 17 | 300 | 0.0 | 1.6 | 0.00 | 0.00 | 0.00 | 36 | 1013.9 |
| 20260505054559 | 17 | 300 | 0.0 | 1.6 | 0.00 | 0.00 | 0.00 | 35 | 1014.0 |
| 20260505054058 | 17 | 300 | 0.0 | 3.2 | 0.00 | 0.00 | 0.00 | 36 | 1013.9 |
| 20260505053558 | 17 | 300 | 0.0 | 3.2 | 0.00 | 0.00 | 0.00 | 38 | 1013.9 |
| 20260505053059 | 17 | 300 | 0.0 | 0.0 | 0.00 | 0.00 | 0.00 | 37 | 1013.8 |
| 20260505052558 | 17 | 300 | 0.0 | 0.0 | 0.00 | 0.00 | 0.00 | 35 | 1013.7 |
| 20260505052058 | 17 | 300 | 0.0 | 0.0 | 0.00 | 0.00 | 0.00 | 34 | 1013.7 |
| 20260505051558 | 17 | 300 | 0.0 | 0.0 | 0.00 | 0.00 | 0.00 | 34 | 1013.9 |
| 20260505051059 | 18 | 300 | 0.0 | 0.0 | 0.00 | 0.00 | 0.00 | 35 | 1013.7 |
| 20260505050557 | 18 | 300 | 0.0 | 0.0 | 0.00 | 0.00 | 0.00 | 34 | 1013.7 |
| 20260505041604 | 20 | 232 | 1.6 | 8.0 | 0.00 | 0.00 | 0.00 | 22 | 1013.7 |
| 20260505041057 | 21 | 271 | 1.6 | 8.0 | 0.00 | 0.00 | 0.00 | 21 | 1013.7 |
| 20260505040555 | 21 | 259 | 3.2 | 8.0 | 0.00 | 0.00 | 0.00 | 21 | 1013.7 |
| 20260505035555 | 21 | 268 | 4.8 | 14.5 | 0.00 | 0.00 | 0.00 | 20 | 1013.6 |
| 20260505035057 | 21 | 261 | 6.4 | 14.5 | 0.00 | 0.00 | 0.00 | 20 | 1013.5 |
| 20260505034556 | 21 | 253 | 9.7 | 19.3 | 0.00 | 0.00 | 0.00 | 19 | 1013.5 |
| 20260505034054 | 22 | 246 | 8.0 | 19.3 | 0.00 | 0.00 | 0.00 | 19 | 1013.5 |
| 20260505033554 | 22 | 263 | 8.0 | 16.1 | 0.00 | 0.00 | 0.00 | 19 | 1013.3 |
| 20260505033101 | 22 | 281 | 8.0 | 20.9 | 0.00 | 0.00 | 0.00 | 19 | 1013.2 |
| 20260505032552 | 22 | 246 | 12.9 | 20.9 | 0.00 | 0.00 | 0.00 | 18 | 1013.1 |
| 20260505032054 | 22 | 242 | 8.0 | 17.7 | 0.00 | 0.00 | 0.00 | 19 | 1013.1 |
| 20260505031555 | 22 | 267 | 4.8 | 12.9 | 0.00 | 0.00 | 0.00 | 19 | 1013.0 |
| 20260505031050 | 22 | 305 | 6.4 | 12.9 | 0.00 | 0.00 | 0.00 | 19 | 1013.0 |
| 20260505030553 | 22 | 234 | 6.4 | 16.1 | 0.00 | 0.00 | 0.00 | 19 | 1012.8 |
| 20260505030050 | 22 | 259 | 6.4 | 12.9 | 0.00 | 0.00 | 0.00 | 19 | 1012.8 |
| 20260505025550 | 22 | 242 | 6.4 | 12.9 | 0.00 | 0.00 | 0.00 | 19 | 1012.8 |
| 20260505025050 | 22 | 292 | 6.4 | 16.1 | 0.00 | 0.00 | 0.00 | 19 | 1012.8 |
| 20260505024549 | 23 | 291 | 4.8 | 16.1 | 0.00 | 0.00 | 0.00 | 19 | 1012.7 |
| 20260505024049 | 23 | 301 | 4.8 | 17.7 | 0.00 | 0.00 | 0.00 | 19 | 1012.8 |
| 20260505023549 | 23 | 254 | 8.0 | 17.7 | 0.00 | 0.00 | 0.00 | 19 | 1012.8 |
| 20260505023049 | 23 | 281 | 8.0 | 17.7 | 0.00 | 0.00 | 0.00 | 19 | 1012.6 |
| 20260505022549 | 23 | 276 | 8.0 | 17.7 | 0.00 | 0.00 | 0.00 | 19 | 1012.6 |
| 20260505022052 | 23 | 300 | 9.7 | 19.3 | 0.00 | 0.00 | 0.00 | 20 | 1012.5 |
| 20260505021550 | 23 | 286 | 8.0 | 19.3 | 0.00 | 0.00 | 0.00 | 20 | 1012.4 |
| 20260505021048 | 23 | 246 | 8.0 | 17.7 | 0.00 | 0.00 | 0.00 | 21 | 1012.4 |
| 20260505020549 | 23 | 292 | 8.0 | 19.3 | 0.00 | 0.00 | 0.00 | 22 | 1012.4 |
| 20260505020050 | 23 | 269 | 8.0 | 16.1 | 0.00 | 0.00 | 0.00 | 22 | 1012.3 |
| 20260505015548 | 23 | 271 | 8.0 | 16.1 | 0.00 | 0.00 | 0.00 | 22 | 1012.2 |
| 20260505015048 | 23 | 286 | 6.4 | 16.1 | 0.00 | 0.00 | 0.00 | 22 | 1012.1 |
| 20260505014547 | 24 | 313 | 9.7 | 16.1 | 0.00 | 0.00 | 0.00 | 22 | 1012.0 |
| 20260505014047 | 24 | 248 | 8.0 | 24.1 | 0.00 | 0.00 | 0.00 | 21 | 1012.0 |
| 20260505013548 | 24 | 316 | 11.3 | 24.1 | 0.00 | 0.00 | 0.00 | 21 | 1012.1 |
| 20260505013047 | 24 | 310 | 8.0 | 19.3 | 0.00 | 0.00 | 0.00 | 21 | 1012.0 |
| 20260505012547 | 24 | 298 | 9.7 | 19.3 | 0.00 | 0.00 | 0.00 | 21 | 1012.0 |
| 20260505012048 | 24 | 293 | 8.0 | 20.9 | 0.00 | 0.00 | 0.00 | 21 | 1012.0 |
| 20260505011547 | 24 | 234 | 9.7 | 22.5 | 0.00 | 0.00 | 0.00 | 21 | 1012.0 |
| 20260505011047 | 25 | 286 | 12.9 | 24.1 | 0.00 | 0.00 | 0.00 | 21 | 1012.0 |
| 20260505010547 | 25 | 286 | 11.3 | 24.1 | 0.00 | 0.00 | 0.00 | 21 | 1012.0 |
| 20260505010057 | 25 | 259 | 6.4 | 19.3 | 0.00 | 0.00 | 0.00 | 21 | 1011.9 |
| 20260505005547 | 25 | 290 | 9.7 | 20.9 | 0.00 | 0.00 | 0.00 | 21 | 1011.8 |
| 20260505005047 | 25 | 257 | 12.9 | 20.9 | 0.00 | 0.00 | 0.00 | 20 | 1011.8 |
| 20260505004546 | 25 | 244 | 8.0 | 19.3 | 0.00 | 0.00 | 0.00 | 20 | 1011.9 |
| 20260505004045 | 25 | 286 | 9.7 | 20.9 | 0.00 | 0.00 | 0.00 | 20 | 1012.0 |
| 20260505003545 | 25 | 295 | 9.7 | 24.1 | 0.00 | 0.00 | 0.00 | 20 | 1012.3 |
| 20260505003043 | 25 | 286 | 14.5 | 24.1 | 0.00 | 0.00 | 0.00 | 19 | 1012.3 |
| 20260505002544 | 25 | 276 | 11.3 | 25.7 | 0.00 | 0.00 | 0.00 | 20 | 1012.4 |
| 20260505002043 | 25 | 281 | 14.5 | 25.7 | 0.00 | 0.00 | 0.00 | 19 | 1012.5 |
| 20260505001543 | 25 | 244 | 9.7 | 20.9 | 0.00 | 0.00 | 0.00 | 19 | 1012.5 |
| 20260505001043 | 25 | 298 | 12.9 | 24.1 | 0.00 | 0.00 | 0.00 | 19 | 1012.5 |
| 20260505000543 | 25 | 254 | 11.3 | 24.1 | 0.00 | 0.00 | 0.00 | 19 | 1012.6 |
| 20260505000054 | 25 | 266 | 11.3 | 29.0 | 0.00 | 0.00 | 0.00 | 19 | 1012.6 |
| 20260504235544 | 25 | 263 | 14.5 | 29.0 | 0.00 | 0.00 | 0.00 | 18 | 1012.6 |
| 20260504235043 | 26 | 252 | 12.9 | 24.1 | 0.00 | 0.00 | 0.00 | 18 | 1012.6 |
| 20260504234542 | 26 | 251 | 12.9 | 22.5 | 0.00 | 0.00 | 0.00 | 18 | 1012.5 |
| 20260504234044 | 26 | 281 | 12.9 | 25.7 | 0.00 | 0.00 | 0.00 | 18 | 1012.5 |
| 20260504233541 | 26 | 316 | 12.9 | 30.6 | 0.00 | 0.00 | 0.00 | 18 | 1012.6 |
| 20260504233041 | 26 | 246 | 14.5 | 30.6 | 0.00 | 0.00 | 0.00 | 18 | 1012.6 |
| 20260504232541 | 26 | 262 | 9.7 | 22.5 | 0.00 | 0.00 | 0.00 | 18 | 1012.4 |
| 20260504232041 | 26 | 312 | 12.9 | 25.7 | 0.00 | 0.00 | 0.00 | 17 | 1012.5 |
| 20260504231541 | 26 | 297 | 12.9 | 25.7 | 0.00 | 0.00 | 0.00 | 18 | 1012.5 |
| 20260504231041 | 26 | 292 | 9.7 | 25.7 | 0.00 | 0.00 | 0.00 | 18 | 1012.4 |
| 20260504230540 | 26 | 281 | 12.9 | 25.7 | 0.00 | 0.00 | 0.00 | 17 | 1012.4 |
| 20260504230040 | 26 | 286 | 12.9 | 29.0 | 0.00 | 0.00 | 0.00 | 17 | 1012.4 |
| 20260504225539 | 27 | 204 | 12.9 | 29.0 | 0.00 | 0.00 | 0.00 | 17 | 1012.3 |
| 20260504225040 | 27 | 331 | 12.9 | 25.7 | 0.00 | 0.00 | 0.00 | 17 | 1012.4 |
| 20260504224538 | 27 | 286 | 12.9 | 24.1 | 0.00 | 0.00 | 0.00 | 17 | 1012.5 |
| 20260504224041 | 27 | 290 | 11.3 | 22.5 | 0.00 | 0.00 | 0.00 | 16 | 1012.5 |
| 20260504223537 | 27 | 290 | 8.0 | 22.5 | 0.00 | 0.00 | 0.00 | 17 | 1012.5 |
| 20260504223036 | 27 | 261 | 12.9 | 22.5 | 0.00 | 0.00 | 0.00 | 17 | 1012.6 |
| 20260504222534 | 27 | 243 | 9.7 | 32.2 | 0.00 | 0.00 | 0.00 | 16 | 1012.7 |
| 20260504222034 | 26 | 286 | 17.7 | 32.2 | 0.00 | 0.00 | 0.00 | 16 | 1012.8 |
| 20260504221532 | 27 | 300 | 17.7 | 32.2 | 0.00 | 0.00 | 0.00 | 15 | 1012.9 |
| 20260504221032 | 26 | 242 | 17.7 | 24.1 | 0.00 | 0.00 | 0.00 | 16 | 1013.0 |
| 20260504220530 | 26 | 281 | 12.9 | 25.7 | 0.00 | 0.00 | 0.00 | 16 | 1012.9 |
| 20260504220043 | 26 | 247 | 12.9 | 24.1 | 0.00 | 0.00 | 0.00 | 15 | 1013.1 |
| 20260504215529 | 26 | 252 | 11.3 | 24.1 | 0.00 | 0.00 | 0.00 | 16 | 1013.2 |
| 20260504215029 | 26 | 259 | 14.5 | 24.1 | 0.00 | 0.00 | 0.00 | 16 | 1013.2 |
| 20260504214533 | 26 | 281 | 12.9 | 32.2 | 0.00 | 0.00 | 0.00 | 17 | 1013.3 |
| 20260504214030 | 26 | 250 | 12.9 | 33.8 | 0.00 | 0.00 | 0.00 | 17 | 1013.2 |
| 20260504213527 | 26 | 244 | 20.9 | 33.8 | 0.00 | 0.00 | 0.00 | 17 | 1013.3 |
| 20260504213026 | 26 | 203 | 11.3 | 29.0 | 0.00 | 0.00 | 0.00 | 18 | 1013.3 |
| 20260504212526 | 26 | 296 | 14.5 | 32.2 | 0.00 | 0.00 | 0.00 | 18 | 1013.5 |
| 20260504212026 | 26 | 257 | 14.5 | 32.2 | 0.00 | 0.00 | 0.00 | 18 | 1013.5 |
| 20260504211533 | 26 | 300 | 11.3 | 25.7 | 0.00 | 0.00 | 0.00 | 17 | 1013.6 |
| 20260504211024 | 26 | 315 | 12.9 | 25.7 | 0.00 | 0.00 | 0.00 | 18 | 1013.7 |
| 20260504210523 | 26 | 259 | 11.3 | 25.7 | 0.00 | 0.00 | 0.00 | 17 | 1013.7 |
| 20260504210022 | 26 | 240 | 12.9 | 24.1 | 0.00 | 0.00 | 0.00 | 18 | 1013.7 |
| 20260504205522 | 26 | 242 | 14.5 | 24.1 | 0.00 | 0.00 | 0.00 | 19 | 1013.9 |
| 20260504205020 | 26 | 270 | 8.0 | 30.6 | 0.00 | 0.00 | 0.00 | 19 | 1013.9 |
| 20260504204534 | 26 | 243 | 16.1 | 30.6 | 0.00 | 0.00 | 0.00 | 19 | 1013.9 |
| 20260504204019 | 26 | 256 | 11.3 | 29.0 | 0.00 | 0.00 | 0.00 | 19 | 1014.0 |
| 20260504203519 | 26 | 205 | 12.9 | 25.7 | 0.00 | 0.00 | 0.00 | 20 | 1014.1 |
| 20260504203018 | 26 | 201 | 14.5 | 25.7 | 0.00 | 0.00 | 0.00 | 20 | 1014.1 |
| 20260504202517 | 26 | 223 | 9.7 | 20.9 | 0.00 | 0.00 | 0.00 | 21 | 1014.2 |
| 20260504202015 | 25 | 205 | 12.9 | 22.5 | 0.00 | 0.00 | 0.00 | 21 | 1014.1 |
| 20260504201514 | 25 | 240 | 12.9 | 20.9 | 0.00 | 0.00 | 0.00 | 21 | 1014.3 |
| 20260504201013 | 25 | 233 | 9.7 | 20.9 | 0.00 | 0.00 | 0.00 | 20 | 1014.3 |
| 20260504200513 | 25 | 193 | 6.4 | 16.1 | 0.00 | 0.00 | 0.00 | 21 | 1014.4 |
| 20260504200011 | 24 | 199 | 8.0 | 17.7 | 0.00 | 0.00 | 0.00 | 19 | 1014.6 |
| 20260504195511 | 24 | 276 | 11.3 | 17.7 | 0.00 | 0.00 | 0.00 | 21 | 1014.7 |
| 20260504195010 | 24 | 223 | 8.0 | 19.3 | 0.00 | 0.00 | 0.00 | 21 | 1014.9 |
| 20260504194509 | 24 | 238 | 11.3 | 25.7 | 0.00 | 0.00 | 0.00 | 21 | 1014.9 |
| 20260504194011 | 23 | 248 | 14.5 | 25.7 | 0.00 | 0.00 | 0.00 | 20 | 1015.0 |
| 20260504193509 | 23 | 250 | 12.9 | 24.1 | 0.00 | 0.00 | 0.00 | 21 | 1015.0 |
| 20260504193005 | 23 | 265 | 12.9 | 20.9 | 0.00 | 0.00 | 0.00 | 22 | 1015.0 |
| 20260504192504 | 23 | 220 | 9.7 | 16.1 | 0.00 | 0.00 | 0.00 | 25 | 1015.0 |
| 20260504192006 | 23 | 254 | 8.0 | 20.9 | 0.00 | 0.00 | 0.00 | 24 | 1014.9 |
| 20260504191505 | 23 | 186 | 11.3 | 20.9 | 0.00 | 0.00 | 0.00 | 25 | 1015.0 |
| 20260504191005 | 23 | 198 | 8.0 | 16.1 | 0.00 | 0.00 | 0.00 | 24 | 1015.1 |
| 20260504190503 | 23 | 328 | 4.8 | 14.5 | 0.00 | 0.00 | 0.00 | 26 | 1015.2 |
| 20260504190002 | 22 | 281 | 6.4 | 16.1 | 0.00 | 0.00 | 0.00 | 25 | 1015.2 |
| 20260504185601 | 22 | 222 | 9.7 | 16.1 | 0.00 | 0.00 | 0.00 | 27 | 1015.3 |
| 20260504185058 | 22 | 225 | 6.4 | 14.5 | 0.00 | 0.00 | 0.00 | 28 | 1015.5 |
| 20260504184557 | 22 | 241 | 8.0 | 16.1 | 0.00 | 0.00 | 0.00 | 28 | 1015.4 |
| 20260504184059 | 21 | 272 | 8.0 | 16.1 | 0.00 | 0.00 | 0.00 | 28 | 1015.6 |
| 20260504183555 | 21 | 234 | 9.7 | 17.7 | 0.00 | 0.00 | 0.00 | 29 | 1015.5 |
| 20260504183100 | 21 | 222 | 8.0 | 16.1 | 0.00 | 0.00 | 0.00 | 29 | 1015.6 |
| 20260504182553 | 21 | 220 | 9.7 | 20.9 | 0.00 | 0.00 | 0.00 | 29 | 1015.6 |
| 20260504182053 | 21 | 185 | 9.7 | 20.9 | 0.00 | 0.00 | 0.00 | 29 | 1015.7 |
| 20260504181552 | 21 | 259 | 12.9 | 20.9 | 0.00 | 0.00 | 0.00 | 30 | 1015.7 |
| 20260504181052 | 21 | 244 | 11.3 | 20.9 | 0.00 | 0.00 | 0.00 | 31 | 1015.7 |
| 20260504180552 | 21 | 292 | 11.3 | 22.5 | 0.00 | 0.00 | 0.00 | 31 | 1015.8 |
| 20260504180130 | 21 | 241 | 14.5 | 22.5 | 0.00 | 0.00 | 0.00 | 31 | 1015.9 |
| 20260504175551 | 21 | 250 | 11.3 | 19.3 | 0.00 | 0.00 | 0.00 | 32 | 1016.0 |
| 20260504175051 | 21 | 259 | 11.3 | 17.7 | 0.00 | 0.00 | 0.00 | 32 | 1016.2 |
| 20260504174548 | 21 | 252 | 6.4 | 17.7 | 0.00 | 0.00 | 0.00 | 34 | 1016.3 |
| 20260504174048 | 21 | 251 | 9.7 | 16.1 | 0.00 | 0.00 | 0.00 | 33 | 1016.4 |
| 20260504173546 | 21 | 270 | 4.8 | 17.7 | 0.00 | 0.00 | 0.00 | 33 | 1016.4 |
| 20260504173047 | 20 | 240 | 9.7 | 17.7 | 0.00 | 0.00 | 0.00 | 33 | 1016.3 |
| 20260504172546 | 20 | 206 | 1.6 | 16.1 | 0.00 | 0.00 | 0.00 | 34 | 1016.4 |
| 20260504172045 | 20 | 263 | 9.7 | 16.1 | 0.00 | 0.00 | 0.00 | 33 | 1016.4 |
| 20260504171549 | 20 | 210 | 3.2 | 9.7 | 0.00 | 0.00 | 0.00 | 34 | 1016.5 |
| 20260504171045 | 20 | 123 | 1.6 | 14.5 | 0.00 | 0.00 | 0.00 | 34 | 1016.5 |
| 20260504170543 | 20 | 281 | 8.0 | 14.5 | 0.00 | 0.00 | 0.00 | 34 | 1016.5 |
| 20260504151023 | 17 | 159 | 0.0 | 3.2 | 0.00 | 0.00 | 0.00 | 45 | 1016.4 |
| 20260504150523 | 17 | 159 | 0.0 | 3.2 | 0.00 | 0.00 | 0.00 | 42 | 1016.5 |
| 20260504141017 | 17 | 251 | 4.8 | 11.3 | 0.00 | 0.00 | 0.00 | 38 | 1016.5 |
| 20260504140516 | 17 | 296 | 4.8 | 11.3 | 0.00 | 0.00 | 0.00 | 38 | 1016.4 |
| 20260504130531 | 18 | 250 | 3.2 | 9.7 | 0.00 | 0.00 | 0.00 | 34 | 1016.2 |